Flag for Spain Weather past 2 weeks in Alicante, Spain

Now
57 °F

Clear.


Feels Like: 57 °F
Forecast: 45 / 67 °F
Wind: 3 mph from North

Location: Alicante / El Altet

Current Time: Dec 17, 2014 at 10:36:42 PM

Latest Report: Dec 17, 2014 at 10:00 PM


Visibility: 10 mi

Pressure: 30.21 "Hg

Humidity: 67%

Dew point: 46 °F

Location of AlicanteLocation

Historic Weather in Alicante — Graph

°F

Alicante temperature yesterday

Maximum temperature yesterday: 61 °F (at 1:00 PM)
Minimum temperature yesterday: 50 °F (at 1:00 AM)
Average temperature yesterday: 55 °F

Past Weeks' High & Low Weather Summary

 TemperatureHumidityPressure
High68 °F (Dec 11, 2:30 PM)100% (Dec 12, 11:00 PM)30.45 "Hg (Dec 12, 11:00 PM)
Low37 °F (Dec 10, 8:00 AM)25% (Dec 9, 4:00 PM)29.77 "Hg (Dec 3, 2:00 PM)
Average54 °F64%30.10 "Hg
* Reported Dec 2 9:00 PM — Dec 17 9:30 PM, Alicante, Weather by CustomWeather, © 2014

Note: Actual official high and low records may vary slightly from our data, if they occured in-between our weather recording intervals... More about our weather records

Advertising

Alicante weather history for previous 24 hours

 ConditionsComfort  
Time TempWeatherWind HumidityBarometerVisibility
9:30 PM
Dec 17
54 °FPassing clouds.5 mph72%30.21 "HgN/A
9:00 PM54 °FClear.5 mph72%30.21 "Hg10 mi
8:30 PM52 °FClear.3 mph77%30.21 "Hg10 mi
8:00 PM54 °FClear.7 mph67%30.21 "Hg10 mi
7:30 PM54 °FClear.5 mph72%30.21 "Hg10 mi
7:00 PM55 °FClear.8 mph63%30.21 "Hg10 mi
6:30 PM54 °FClear.5 mph72%30.21 "Hg10 mi
6:00 PM57 °FClear.5 mph63%30.21 "Hg10 mi
5:30 PM59 °FSunny.5 mph55%30.18 "Hg10 mi
5:00 PM63 °FSunny.6 mph45%30.18 "Hg10 mi
4:30 PM63 °FSunny.6 mph49%30.18 "Hg10 mi
4:00 PM64 °FPassing clouds.6 mph43%30.18 "HgN/A
3:30 PM63 °FPassing clouds.9 mph39%30.18 "HgN/A
3:00 PM63 °FPassing clouds.9 mph42%30.18 "HgN/A
2:30 PM63 °FSunny.10 mph45%30.18 "Hg10 mi
2:00 PM63 °FSunny.13 mph45%30.18 "Hg10 mi
1:30 PM61 °FSunny.14 mph48%30.18 "Hg10 mi
1:00 PM61 °FPassing clouds.13 mph48%30.21 "HgN/A
12:30 PM59 °FSunny.14 mph51%30.21 "Hg10 mi
12:00 PM59 °FSunny.14 mph48%30.21 "Hg10 mi
11:30 AM57 °FSunny.15 mph51%30.21 "Hg10 mi
11:00 AM57 °FSunny.16 mph51%30.21 "Hg10 mi
10:30 AM55 °FSunny.13 mph55%30.18 "Hg10 mi
10:00 AM54 °FSunny.14 mph58%30.18 "Hg10 mi
9:30 AM52 °FSunny.15 mph62%30.18 "Hg10 mi
9:00 AM52 °FSunny.14 mph62%30.15 "Hg10 mi
8:30 AM50 °FSunny.13 mph62%30.15 "Hg10 mi
8:00 AM50 °FClear.13 mph67%30.15 "Hg10 mi
7:30 AM50 °FClear.12 mph67%30.12 "Hg10 mi
6:00 AM50 °FClear.8 mph67%30.09 "Hg10 mi
5:00 AM52 °FClear.8 mph62%30.09 "Hg10 mi
4:30 AM52 °FClear.10 mph62%30.07 "Hg10 mi
4:00 AM52 °FClear.8 mph67%30.07 "Hg10 mi
3:30 AM52 °FClear.10 mph67%30.07 "Hg10 mi
3:00 AM50 °FClear.7 mph76%30.07 "Hg10 mi
2:30 AM54 °FClear.9 mph67%30.07 "Hg10 mi
2:00 AM54 °FClear.9 mph67%30.07 "Hg10 mi
1:30 AM55 °FClear.10 mph63%30.07 "Hg10 mi
1:00 AM54 °FClear.9 mph67%30.07 "Hg10 mi
12:30 AM55 °FClear.10 mph67%30.07 "Hg10 mi
12:00 AM54 °FClear.10 mph72%30.07 "Hg10 mi
11:30 PM
Dec 16
55 °FClear.12 mph67%30.07 "Hg10 mi
11:00 PM57 °FClear.13 mph63%30.07 "Hg10 mi
10:30 PM57 °FClear.12 mph63%30.07 "Hg10 mi
10:00 PM57 °FClear.16 mph63%30.04 "Hg10 mi
Weather by CustomWeather, © 2014

See weather overviewHow to use our weather pages